Location: Rotheul
(50.2849°N, 11.2349°E)
Time: 06:15:50
(UTC+02:00)

ISS - Pass Details

Date: 20 July 2018
Orbit: 402 x 408 km, 51.6° (Epoch: 21 July)

Event Time Altitude Azimuth Distance (km) Brightness Sun altitude
Rises 00:37:04 0° 257° (WSW) 2,321 0.0 -18.3°
Reaches altitude 10° 00:39:09 10° 258° (WSW) 1,463 -1.0 -18.4°
Maximum altitude 00:42:26 83° 344° (NNW) 414 -3.8 -18.5°
Drops below altitude 10° 00:45:44 10° 76° (ENE) 1,470 -0.9 -18.6°
Sets 00:47:50 0° 77° (ENE) 2,333 0.1 -18.6°
